When you browse on this site, cookies collect data to enhance your experience and personalize the content and advertising you see.
Visit our Privacy Policy to learn more. By continuing to use the site, you agree to this use of cookies and data.
  • In Czech Republic
  • List of Countries
  • For 7 days
  • Water Temperature
  • Satellite Maps
  • Weather Map
  • Weather Widgets
  • user-avatar
    Login

    Hourly Weather Perth

    Today, 24 June, Monday

    Time Temperature Precipitation Wind Pressure Humidity
    00:00 +15°C° 0 mm 5 mps 759 mmHg 68%
    01:00 +15°C° 0 mm 5 mps 760 mmHg 69%
    02:00 +16°C° 0 mm 3 mps 760 mmHg 71%
    03:00 +14°C° 0 mm 3 mps 760 mmHg 72%
    04:00 +14°C° 0 mm 3 mps 761 mmHg 72%
    05:00 +14°C° 0 mm 3 mps 761 mmHg 73%
    06:00 +15°C° 0 mm 2 mps 761 mmHg 72%
    07:00 +15°C° 0 mm 2 mps 762 mmHg 71%
    08:00 +15°C° 0 mm 1 mps 763 mmHg 73%
    09:00 +16°C° 0 mm 1 mps 763 mmHg 70%
    10:00 +17°C° 0 mm 2 mps 763 mmHg 66%
    11:00 +18°C° 0 mm 2 mps 763 mmHg 62%
    12:00 +18°C° 0 mm 3 mps 763 mmHg 62%
    13:00 +18°C° 0 mm 3 mps 763 mmHg 62%
    14:00 +18°C° 0 mm 2 mps 763 mmHg 61%
    15:00 +18°C° 0 mm 2 mps 763 mmHg 62%
    16:00 +18°C° 0 mm 2 mps 764 mmHg 63%
    17:00 +17°C° 0 mm 2 mps 764 mmHg 65%
    18:00 +17°C° 0 mm 2 mps 764 mmHg 65%
    19:00 +18°C° 0 mm 1 mps 765 mmHg 65%
    20:00 +18°C° 0 mm 1 mps 765 mmHg 66%
    21:00 +18°C° 0 mm 1 mps 765 mmHg 67%
    22:00 +18°C° 0 mm 1 mps 765 mmHg 68%
    23:00 +16°C° 0 mm 2 mps 765 mmHg 69%

    Tomorrow, 25 June, Tuesday

    Time Temperature Precipitation Wind Pressure Humidity
    00:00 +16°C° 0 mm 2 mps 764 mmHg 71%
    01:00 +15°C° 0 mm 2 mps 764 mmHg 74%
    02:00 +15°C° 0 mm 2 mps 764 mmHg 76%
    03:00 +14°C° 0 mm 2 mps 764 mmHg 77%
    04:00 +14°C° 0 mm 2 mps 764 mmHg 78%
    05:00 +14°C° 0 mm 2 mps 764 mmHg 79%
    06:00 +13°C° 0 mm 3 mps 764 mmHg 78%
    07:00 +13°C° 0 mm 3 mps 764 mmHg 77%
    08:00 +13°C° 0 mm 3 mps 764 mmHg 77%
    09:00 +14°C° 0 mm 3 mps 764 mmHg 72%
    10:00 +17°C° 0 mm 4 mps 764 mmHg 67%
    11:00 +18°C° 0 mm 4 mps 764 mmHg 62%
    12:00 +19°C° 0 mm 4 mps 763 mmHg 60%
    13:00 +19°C° 0 mm 4 mps 763 mmHg 58%
    14:00 +20°C° 0 mm 4 mps 762 mmHg 56%
    15:00 +19°C° 0 mm 3 mps 762 mmHg 59%
    16:00 +18°C° 0 mm 3 mps 762 mmHg 62%
    17:00 +18°C° 0 mm 2 mps 761 mmHg 65%
    18:00 +17°C° 0 mm 2 mps 761 mmHg 68%
    19:00 +17°C° 0 mm 2 mps 761 mmHg 70%
    20:00 +16°C° 0 mm 2 mps 761 mmHg 73%
    21:00 +16°C° 0 mm 2 mps 761 mmHg 74%
    22:00 +15°C° 0 mm 2 mps 761 mmHg 75%
    23:00 +15°C° 0 mm 2 mps 760 mmHg 77%

    Day after tomorrow, 26 June, Wednesday

    Time Temperature Precipitation Wind Pressure Humidity
    00:00 +14°C° 0 mm 2 mps 760 mmHg 77%
    01:00 +14°C° 0 mm 2 mps 759 mmHg 78%
    02:00 +13°C° 0 mm 3 mps 758 mmHg 79%
    03:00 +13°C° 0 mm 3 mps 758 mmHg 79%
    04:00 +13°C° 0 mm 3 mps 758 mmHg 79%
    05:00 +13°C° 0 mm 4 mps 758 mmHg 79%
    06:00 +13°C° 0 mm 4 mps 757 mmHg 78%
    07:00 +13°C° 0 mm 4 mps 757 mmHg 78%
    08:00 +13°C° 0 mm 5 mps 756 mmHg 77%
    09:00 +14°C° 0.1 mm 6 mps 756 mmHg 77%
    10:00 +16°C° 0.1 mm 6 mps 756 mmHg 77%
    11:00 +17°C° 0.1 mm 7 mps 756 mmHg 77%
    12:00 +18°C° 0.3 mm 8 mps 755 mmHg 73%
    13:00 +18°C° 0.3 mm 8 mps 754 mmHg 70%
    14:00 +19°C° 0.3 mm 9 mps 753 mmHg 67%
    15:00 +18°C° 0.4 mm 9 mps 753 mmHg 69%
    16:00 +18°C° 0.4 mm 9 mps 753 mmHg 71%
    17:00 +18°C° 0.4 mm 9 mps 753 mmHg 73%
    18:00 +17°C° 1.4 mm 9 mps 753 mmHg 75%
    19:00 +17°C° 1.4 mm 9 mps 753 mmHg 77%
    20:00 +16°C° 1.4 mm 9 mps 753 mmHg 79%
    21:00 +16°C° 0.2 mm 8 mps 753 mmHg 75%
    22:00 +16°C° 0.2 mm 8 mps 754 mmHg 71%
    23:00 +16°C° 0.2 mm 7 mps 754 mmHg 67%

    27 June, Thursday

    Time Temperature Precipitation Wind Pressure Humidity
    00:00 +15°C° 0.2 mm 7 mps 754 mmHg 68%
    01:00 +15°C° 0.2 mm 7 mps 754 mmHg 68%
    02:00 +14°C° 0.2 mm 6 mps 754 mmHg 69%
    03:00 +14°C° 0.4 mm 6 mps 755 mmHg 70%
    04:00 +14°C° 0.4 mm 6 mps 755 mmHg 71%
    05:00 +14°C° 0.4 mm 6 mps 755 mmHg 72%
    06:00 +14°C° 0.7 mm 6 mps 755 mmHg 72%
    07:00 +14°C° 0.7 mm 6 mps 755 mmHg 73%
    08:00 +14°C° 0.7 mm 6 mps 755 mmHg 73%
    09:00 +14°C° 0.6 mm 7 mps 756 mmHg 71%
    10:00 +15°C° 0.6 mm 7 mps 756 mmHg 69%
    11:00 +15°C° 0.6 mm 8 mps 756 mmHg 68%
    12:00 +15°C° 0.6 mm 8 mps 756 mmHg 68%
    13:00 +15°C° 0.6 mm 7 mps 756 mmHg 68%
    14:00 +15°C° 0.6 mm 7 mps 755 mmHg 69%
    15:00 +14°C° 0.6 mm 7 mps 756 mmHg 70%
    16:00 +14°C° 0.6 mm 7 mps 756 mmHg 72%
    17:00 +13°C° 0.6 mm 6 mps 757 mmHg 73%
    18:00 +13°C° 0.5 mm 6 mps 757 mmHg 73%
    19:00 +13°C° 0.5 mm 6 mps 758 mmHg 72%
    20:00 +11°C° 0.5 mm 6 mps 759 mmHg 72%
    21:00 +12°C° 0.4 mm 5 mps 759 mmHg 72%
    22:00 +10°C° 0.4 mm 5 mps 760 mmHg 72%
    23:00 +10°C° 0.4 mm 5 mps 761 mmHg 73%

    28 June, Friday

    Time Temperature Precipitation Wind Pressure Humidity
    00:00 +10°C° 0.3 mm 5 mps 761 mmHg 73%
    01:00 +10°C° 0.3 mm 4 mps 761 mmHg 73%
    02:00 +10°C° 0.3 mm 4 mps 762 mmHg 73%
    03:00 +10°C° 0.2 mm 3 mps 762 mmHg 73%
    04:00 +10°C° 0.2 mm 3 mps 763 mmHg 73%
    05:00 +9°C° 0.2 mm 2 mps 763 mmHg 73%
    06:00 +10°C° 0 mm 2 mps 764 mmHg 73%
    07:00 +10°C° 0 mm 2 mps 765 mmHg 72%
    08:00 +10°C° 0 mm 2 mps 765 mmHg 72%
    09:00 +12°C° 0 mm 2 mps 766 mmHg 68%
    10:00 +13°C° 0 mm 2 mps 766 mmHg 64%
    11:00 +14°C° 0 mm 2 mps 767 mmHg 59%
    12:00 +13°C° 0 mm 3 mps 766 mmHg 58%
    13:00 +13°C° 0 mm 4 mps 766 mmHg 58%
    14:00 +14°C° 0 mm 5 mps 766 mmHg 57%
    15:00 +13°C° 0 mm 4 mps 766 mmHg 59%
    16:00 +13°C° 0 mm 3 mps 767 mmHg 61%
    17:00 +12°C° 0 mm 3 mps 767 mmHg 63%
    18:00 +13°C° 0 mm 2 mps 768 mmHg 63%
    19:00 +13°C° 0 mm 2 mps 768 mmHg 64%
    20:00 +12°C° 0 mm 2 mps 769 mmHg 65%
    21:00 +12°C° 0 mm 1 mps 769 mmHg 65%
    22:00 +12°C° 0 mm 1 mps 769 mmHg 66%
    23:00 +12°C° 0 mm 1 mps 769 mmHg 67%

    29 June, Saturday

    Time Temperature Precipitation Wind Pressure Humidity
    00:00 +11°C° 0 mm 1 mps 769 mmHg 68%
    01:00 +11°C° 0 mm 1 mps 769 mmHg 69%
    02:00 +11°C° 0 mm 1 mps 769 mmHg 69%
    03:00 +10°C° 0 mm 2 mps 769 mmHg 71%
    04:00 +9°C° 0 mm 2 mps 768 mmHg 73%
    05:00 +9°C° 0 mm 2 mps 768 mmHg 74%
    06:00 +9°C° 0 mm 2 mps 769 mmHg 75%
    07:00 +9°C° 0 mm 2 mps 769 mmHg 75%
    08:00 +9°C° 0 mm 2 mps 769 mmHg 75%
    09:00 +10°C° 0 mm 2 mps 769 mmHg 71%
    10:00 +12°C° 0 mm 3 mps 769 mmHg 66%
    11:00 +13°C° 0 mm 3 mps 769 mmHg 61%
    12:00 +14°C° 0 mm 3 mps 768 mmHg 59%
    13:00 +14°C° 0 mm 3 mps 768 mmHg 57%
    14:00 +16°C° 0 mm 2 mps 767 mmHg 55%
    15:00 +16°C° 0 mm 2 mps 767 mmHg 58%
    16:00 +15°C° 0 mm 2 mps 767 mmHg 62%
    17:00 +14°C° 0 mm 2 mps 767 mmHg 65%
    18:00 +14°C° 0 mm 2 mps 767 mmHg 67%
    19:00 +13°C° 0 mm 2 mps 767 mmHg 69%
    20:00 +13°C° 0 mm 2 mps 767 mmHg 71%
    21:00 +12°C° 0 mm 2 mps 767 mmHg 71%
    22:00 +12°C° 0 mm 2 mps 767 mmHg 72%
    23:00 +12°C° 0 mm 2 mps 766 mmHg 73%
    Show more